Thermopolis, WY

1:16 PM MDT on April 25, 2017 (GMT -0600)
Thermopolis

Weather History for KTBX - February, 2014

Change the Weather History Date:

Monday, February 10, 2014

  Actual Average (KWRL) Record (KWRL)
Temperature  
Mean Temperature 26 °F -  
Max Temperature 32 °F 35 °F 60 °F (1970)
Min Temperature 19 °F 8 °F -23 °F (1982)
Degree Days  
Heating Degree Days 40    
Moisture  
Dew Point 15 °F    
Average Humidity 66    
Maximum Humidity 93    
Minimum Humidity 40    
Precipitation  
Precipitation 0.00 in - - ()
Sea Level Pressure  
Sea Level Pressure 30.00 in    
Wind  
Wind Speed 9 mph (SSW)    
Max Wind Speed 17 mph    
Max Gust Speed 26 mph    
Visibility 10 miles    
Events      
Averages and records for this station are not official NWS values.
T = Trace of Precipitation, MM = Missing Value Source: NWS Daily Summary

Daily Weather History Graph

Daily Weather History Graph

Search for Another Location

Airport or City:

Trip Planner

Search our weather history database for the weather conditions in past years. The results will help you decide how hot, cold, wet, or windy it might be!

Date:

Astronomy

Feb. 10, 2014 Rise Set
Actual Time 7:18 AM MST 5:36 PM MST
Civil Twilight 6:48 AM MST 6:06 PM MST
Nautical Twilight 6:14 AM MST 6:40 PM MST
Astronomical Twilight 5:41 AM MST 7:13 PM MST
Moon 2:05 PM MST (2/10) 4:16 AM MST (2/10)
Length of Visible Light 11h 18m
Length of Day
10h 18m
Waxing Gibbous, 85% of the Moon is Illuminated
Feb 10
Waxing Gibbous
Feb 14
Full
Feb 22
Last Quarter
Mar 1
New
Mar 8
First Quarter

Hourly Weather History & Observations

Time (MST) Temp. Windchill Dew Point Humidity Pressure Visibility Wind Dir Wind Speed Gust Speed Precip Events Conditions
1:35 AM 19.4 °F 5.5 °F 17.6 °F 93% 29.93 in - South 15.0 mph 26.5 mph N/A   Unknown
1:55 AM 19.4 °F 4.5 °F 17.6 °F 93% 29.93 in - SSW 17.3 mph 21.9 mph N/A   Unknown
3:15 AM 21.2 °F 10.1 °F 19.4 °F 93% 29.94 in - WSW 10.4 mph - N/A   Unknown
3:35 AM 21.2 °F 8.9 °F 19.4 °F 93% 29.94 in - WSW 12.7 mph - N/A   Unknown
4:15 AM 19.4 °F 10.4 °F 17.6 °F 93% 29.95 in - SSW 6.9 mph - N/A   Unknown
4:35 AM 23.0 °F 17.0 °F 17.6 °F 80% 29.95 in - SW 4.6 mph - N/A   Clear
4:55 AM 26.6 °F 21.2 °F 14.0 °F 59% 29.95 in - WSW 4.6 mph - N/A   Clear
5:15 AM 28.4 °F 24.6 °F 14.0 °F 55% 29.95 in - West 3.5 mph - N/A   Clear
5:35 AM 28.4 °F 24.6 °F 14.0 °F 55% 29.95 in - WNW 3.5 mph - N/A   Clear
5:55 AM 26.6 °F 19.1 °F 14.0 °F 59% 29.95 in - NW 6.9 mph - N/A   Clear
6:15 AM 24.8 °F 16.1 °F 14.0 °F 64% 29.96 in - NNW 8.1 mph - N/A   Clear
6:35 AM 26.6 °F 16.8 °F 15.8 °F 64% 29.96 in - North 10.4 mph - N/A   Clear
6:55 AM 26.6 °F 17.5 °F 17.6 °F 69% 29.97 in 10.0 mi North 9.2 mph - N/A   Clear
7:15 AM 26.6 °F 16.2 °F 17.6 °F 69% 29.97 in 10.0 mi North 11.5 mph - N/A   Clear
7:35 AM 26.6 °F 18.2 °F 17.6 °F 69% 29.97 in 10.0 mi North 8.1 mph - N/A   Clear
7:55 AM 26.6 °F 17.5 °F 17.6 °F 69% 29.98 in 10.0 mi North 9.2 mph - N/A   Clear
8:15 AM 26.6 °F 19.1 °F 17.6 °F 69% 29.99 in 10.0 mi North 6.9 mph - N/A   Clear
8:35 AM 26.6 °F 19.1 °F 17.6 °F 69% 30.00 in 10.0 mi NNW 6.9 mph - N/A   Clear
8:55 AM 28.4 °F - 17.6 °F 64% 30.00 in 10.0 mi Calm Calm - N/A   Clear
9:15 AM 26.6 °F - 15.8 °F 64% 30.01 in 10.0 mi Calm Calm - N/A   Clear
9:35 AM 26.6 °F 22.6 °F 15.8 °F 64% 30.02 in 10.0 mi SSE 3.5 mph - N/A   Scattered Clouds
9:55 AM 26.6 °F - 15.8 °F 64% 30.03 in 10.0 mi Calm Calm - N/A   Mostly Cloudy
10:15 AM 26.6 °F 21.2 °F 15.8 °F 64% 30.03 in 10.0 mi South 4.6 mph - N/A   Overcast
2:35 PM 30.2 °F - 15.8 °F 55% 30.03 in 10.0 mi Calm Calm - N/A   Clear
3:35 PM 32.0 °F - 14.0 °F 48% 30.06 in 10.0 mi Calm Calm - N/A   Clear
8:55 PM 26.6 °F 16.2 °F 12.2 °F 55% 30.08 in 10.0 mi SE 11.5 mph - N/A   Clear
9:15 PM 24.8 °F 14.0 °F 12.2 °F 59% 30.08 in 10.0 mi SE 11.5 mph - N/A   Clear
9:35 PM 24.8 °F 13.4 °F 14.0 °F 64% 30.08 in 10.0 mi ESE 12.7 mph - N/A   Clear
9:55 PM 24.8 °F 13.4 °F 14.0 °F 64% 30.07 in 10.0 mi SE 12.7 mph - N/A   Clear
10:15 PM 24.8 °F 14.6 °F 14.0 °F 64% 30.07 in 10.0 mi SE 10.4 mph - N/A   Clear
10:35 PM 24.8 °F 16.1 °F 14.0 °F 64% 30.06 in 10.0 mi SE 8.1 mph - N/A   Clear
10:55 PM 23.0 °F 15.8 °F 14.0 °F 68% 30.06 in 10.0 mi SE 5.8 mph - N/A   Clear
11:15 PM 23.0 °F 13.9 °F 12.2 °F 63% 30.06 in 10.0 mi SE 8.1 mph - N/A   Clear
11:35 PM 28.4 °F 20.4 °F 10.4 °F 47% 30.05 in 10.0 mi South 8.1 mph - N/A   Clear
11:55 PM 28.4 °F 21.2 °F 6.8 °F 40% 30.05 in 10.0 mi SSW 6.9 mph - N/A   Clear